When you browse on this site, cookies collect data to enhance your experience and personalize the content and advertising you see.
Visit our Privacy Policy to learn more. By continuing to use the site, you agree to this use of cookies and data.
  • In Schweiz
  • Länderverzeichnis
  • Für 7 Tage
  • Wassertemperatur
  • Wetterkarte
  • Widgets
  • user-avatar
    Anmelden

    Stündliche Wetter Babruisk

    Heute, 23 Februar, Sonntag

    Zeit Temperatur Niederschläge Wind Luftdruck Luftfeuchtigkeit
    00:00 +1°C° 0.1 mm 8 m/S 743 mmHg 71%
    01:00 +2°C° 0.1 mm 7 m/S 742 mmHg 73%
    02:00 +2°C° 0 mm 7 m/S 741 mmHg 69%
    03:00 +2°C° 0.2 mm 7 m/S 740 mmHg 74%
    04:00 +3°C° 0.2 mm 7 m/S 740 mmHg 79%
    05:00 +3°C° 0.2 mm 7 m/S 739 mmHg 84%
    06:00 +2°C° 0.1 mm 7 m/S 739 mmHg 82%
    07:00 +2°C° 0.1 mm 7 m/S 739 mmHg 80%
    08:00 +2°C° 0.1 mm 6 m/S 739 mmHg 78%
    09:00 +2°C° 0.2 mm 7 m/S 739 mmHg 73%
    10:00 +3°C° 0.2 mm 7 m/S 739 mmHg 68%
    11:00 +3°C° 0.2 mm 7 m/S 739 mmHg 63%
    12:00 +3°C° 0.1 mm 7 m/S 739 mmHg 61%
    13:00 +4°C° 0.1 mm 7 m/S 739 mmHg 59%
    14:00 +4°C° 0.1 mm 8 m/S 739 mmHg 57%
    15:00 +4°C° 0 mm 6 m/S 738 mmHg 58%
    16:00 +3°C° 0 mm 5 m/S 738 mmHg 60%
    17:00 +4°C° 0 mm 4 m/S 737 mmHg 62%
    18:00 +3°C° 0 mm 4 m/S 737 mmHg 65%
    19:00 +1°C° 0 mm 4 m/S 737 mmHg 68%
    20:00 +1°C° 0 mm 4 m/S 737 mmHg 72%
    21:00 +1°C° 0 mm 3 m/S 736 mmHg 76%
    22:00 +1°C° 0 mm 3 m/S 735 mmHg 80%
    23:00 +1°C° 0 mm 3 m/S 734 mmHg 85%

    Morgen, 24 Februar, Montag

    Zeit Temperatur Niederschläge Wind Luftdruck Luftfeuchtigkeit
    00:00 +1°C° 0 mm 2 m/S 734 mmHg 87%
    01:00 +1°C° 0 mm 2 m/S 733 mmHg 89%
    02:00 +2°C° 0 mm 1 m/S 732 mmHg 92%
    03:00 +2°C° 0 mm 1 m/S 732 mmHg 92%
    04:00 +1°C° 0 mm 2 m/S 731 mmHg 92%
    05:00 -1°C° 0 mm 2 m/S 731 mmHg 92%
    06:00 0°C° 0 mm 3 m/S 732 mmHg 90%
    07:00 0°C° 0 mm 3 m/S 733 mmHg 88%
    08:00 -1°C° 0 mm 4 m/S 734 mmHg 86%
    09:00 0°C° 0 mm 5 m/S 734 mmHg 81%
    10:00 0°C° 0 mm 5 m/S 735 mmHg 75%
    11:00 +1°C° 0 mm 6 m/S 735 mmHg 70%
    12:00 +2°C° 0 mm 6 m/S 736 mmHg 68%
    13:00 +2°C° 0 mm 7 m/S 737 mmHg 67%
    14:00 +2°C° 0 mm 7 m/S 737 mmHg 65%
    15:00 +2°C° 0 mm 6 m/S 738 mmHg 63%
    16:00 +2°C° 0 mm 6 m/S 738 mmHg 62%
    17:00 +1°C° 0 mm 6 m/S 739 mmHg 60%
    18:00 +1°C° 0 mm 5 m/S 740 mmHg 63%
    19:00 0°C° 0 mm 5 m/S 741 mmHg 65%
    20:00 -1°C° 0 mm 5 m/S 742 mmHg 67%
    21:00 -2°C° 0 mm 4 m/S 742 mmHg 69%
    22:00 -2°C° 0 mm 4 m/S 742 mmHg 70%
    23:00 -1°C° 0 mm 3 m/S 743 mmHg 72%

    übermorgen, 25 Februar, Dienstag

    Zeit Temperatur Niederschläge Wind Luftdruck Luftfeuchtigkeit
    00:00 -2°C° 0 mm 3 m/S 743 mmHg 73%
    01:00 -2°C° 0 mm 3 m/S 743 mmHg 75%
    02:00 -2°C° 0 mm 3 m/S 743 mmHg 76%
    03:00 -2°C° 0 mm 3 m/S 742 mmHg 77%
    04:00 -2°C° 0 mm 2 m/S 742 mmHg 78%
    05:00 -2°C° 0 mm 2 m/S 741 mmHg 80%
    06:00 -2°C° 0 mm 2 m/S 741 mmHg 79%
    07:00 -1°C° 0 mm 3 m/S 741 mmHg 78%
    08:00 -1°C° 0 mm 3 m/S 741 mmHg 77%
    09:00 0°C° 0 mm 3 m/S 740 mmHg 80%
    10:00 -1°C° 0 mm 4 m/S 740 mmHg 83%
    11:00 0°C° 0 mm 5 m/S 739 mmHg 86%
    12:00 -1°C° 0.1 mm 5 m/S 738 mmHg 88%
    13:00 -1°C° 0.1 mm 5 m/S 738 mmHg 91%
    14:00 -1°C° 0.1 mm 5 m/S 737 mmHg 94%
    15:00 -1°C° 0.1 mm 5 m/S 736 mmHg 95%
    16:00 0°C° 0.1 mm 4 m/S 735 mmHg 96%
    17:00 0°C° 0.1 mm 4 m/S 734 mmHg 96%
    18:00 0°C° 0.3 mm 4 m/S 734 mmHg 96%
    19:00 +1°C° 0.3 mm 4 m/S 734 mmHg 96%
    20:00 +1°C° 0.3 mm 4 m/S 734 mmHg 96%
    21:00 +2°C° 0.2 mm 5 m/S 733 mmHg 95%
    22:00 +2°C° 0.2 mm 5 m/S 733 mmHg 94%
    23:00 +2°C° 0.2 mm 5 m/S 733 mmHg 93%

    26 Februar, Mittwoch

    Zeit Temperatur Niederschläge Wind Luftdruck Luftfeuchtigkeit
    00:00 +2°C° 0.2 mm 5 m/S 733 mmHg 93%
    01:00 +3°C° 0.2 mm 4 m/S 733 mmHg 93%
    02:00 +1°C° 0.2 mm 4 m/S 733 mmHg 93%
    03:00 +1°C° 0.1 mm 4 m/S 733 mmHg 92%
    04:00 +2°C° 0.1 mm 3 m/S 733 mmHg 90%
    05:00 +2°C° 0.1 mm 3 m/S 733 mmHg 88%
    06:00 +1°C° 0 mm 3 m/S 733 mmHg 88%
    07:00 +1°C° 0 mm 3 m/S 733 mmHg 89%
    08:00 +1°C° 0 mm 3 m/S 733 mmHg 89%
    09:00 +2°C° 0 mm 3 m/S 733 mmHg 82%
    10:00 +3°C° 0 mm 4 m/S 733 mmHg 74%
    11:00 +4°C° 0 mm 4 m/S 734 mmHg 66%
    12:00 +4°C° 0 mm 4 m/S 734 mmHg 63%
    13:00 +5°C° 0 mm 4 m/S 734 mmHg 59%
    14:00 +5°C° 0 mm 4 m/S 734 mmHg 55%
    15:00 +4°C° 0 mm 3 m/S 734 mmHg 58%
    16:00 +4°C° 0 mm 3 m/S 733 mmHg 61%
    17:00 +4°C° 0 mm 2 m/S 733 mmHg 65%
    18:00 +4°C° 0 mm 2 m/S 734 mmHg 68%
    19:00 +3°C° 0 mm 2 m/S 734 mmHg 71%
    20:00 +2°C° 0 mm 2 m/S 735 mmHg 74%
    21:00 +2°C° 0 mm 2 m/S 735 mmHg 75%
    22:00 +3°C° 0 mm 1 m/S 735 mmHg 75%
    23:00 +3°C° 0 mm 1 m/S 735 mmHg 76%

    27 Februar, Donnerstag

    Zeit Temperatur Niederschläge Wind Luftdruck Luftfeuchtigkeit
    00:00 +2°C° 0 mm 1 m/S 735 mmHg 77%
    01:00 +2°C° 0 mm 1 m/S 735 mmHg 77%
    02:00 +2°C° 0 mm 1 m/S 735 mmHg 78%
    03:00 +2°C° 0 mm 1 m/S 735 mmHg 78%
    04:00 +2°C° 0 mm 1 m/S 735 mmHg 78%
    05:00 +1°C° 0 mm 2 m/S 735 mmHg 78%
    06:00 +2°C° 0 mm 1 m/S 735 mmHg 78%
    07:00 +2°C° 0 mm 1 m/S 735 mmHg 79%
    08:00 +3°C° 0 mm 1 m/S 735 mmHg 79%
    09:00 +4°C° 0 mm 1 m/S 735 mmHg 76%
    10:00 +5°C° 0 mm 1 m/S 735 mmHg 73%
    11:00 +6°C° 0 mm 1 m/S 735 mmHg 70%
    12:00 +6°C° 0 mm 1 m/S 735 mmHg 67%
    13:00 +6°C° 0 mm 2 m/S 735 mmHg 63%
    14:00 +6°C° 0 mm 2 m/S 735 mmHg 60%
    15:00 +6°C° 0 mm 2 m/S 735 mmHg 64%
    16:00 +5°C° 0 mm 2 m/S 736 mmHg 68%
    17:00 +5°C° 0 mm 2 m/S 736 mmHg 72%
    18:00 +4°C° 0 mm 2 m/S 736 mmHg 75%
    19:00 +3°C° 0 mm 2 m/S 737 mmHg 78%
    20:00 +2°C° 0 mm 2 m/S 737 mmHg 81%
    21:00 +2°C° 0 mm 2 m/S 737 mmHg 81%
    22:00 +1°C° 0 mm 2 m/S 738 mmHg 82%
    23:00 +1°C° 0 mm 2 m/S 738 mmHg 82%

    28 Februar, Freitag

    Zeit Temperatur Niederschläge Wind Luftdruck Luftfeuchtigkeit
    00:00 -1°C° 0 mm 2 m/S 738 mmHg 83%
    01:00 -1°C° 0 mm 2 m/S 738 mmHg 84%
    02:00 -2°C° 0 mm 2 m/S 738 mmHg 86%
    03:00 0°C° 0 mm 1 m/S 738 mmHg 85%
    04:00 0°C° 0 mm 1 m/S 738 mmHg 85%
    05:00 0°C° 0 mm 1 m/S 738 mmHg 84%
    06:00 0°C° 0 mm 1 m/S 738 mmHg 83%
    07:00 0°C° 0 mm 1 m/S 738 mmHg 83%
    08:00 +1°C° 0 mm 1 m/S 738 mmHg 82%
    09:00 +1°C° 0 mm 2 m/S 738 mmHg 77%
    10:00 +2°C° 0 mm 2 m/S 738 mmHg 72%
    11:00 +2°C° 0 mm 3 m/S 738 mmHg 68%
    12:00 +2°C° 0 mm 3 m/S 738 mmHg 64%
    13:00 +3°C° 0 mm 4 m/S 737 mmHg 61%
    14:00 +3°C° 0 mm 4 m/S 737 mmHg 58%
    15:00 +3°C° 0 mm 4 m/S 736 mmHg 59%
    16:00 +3°C° 0 mm 4 m/S 736 mmHg 60%
    17:00 +1°C° 0 mm 4 m/S 735 mmHg 62%
    18:00 +1°C° 0.1 mm 4 m/S 735 mmHg 68%
    19:00 0°C° 0.1 mm 5 m/S 735 mmHg 75%
    20:00 -1°C° 0.1 mm 6 m/S 735 mmHg 81%
    21:00 0°C° 0.3 mm 5 m/S 734 mmHg 84%
    22:00 0°C° 0.3 mm 4 m/S 734 mmHg 86%
    23:00 0°C° 0.3 mm 4 m/S 734 mmHg 89%
    Mehr zeigen